This is the latest recevied weather packets stored in our database for station/object KI7MOQ. If no packets are shown the sender has not sent any weather packets the latest 10 day(s).
| Time | Temp. | Humidity | Pressure | Rain* | Wind** | Luminosity | Snow |
|---|---|---|---|---|---|---|---|
| 1777940397 | 23.33° C | 56% | 1012.8 hPa | 0 mm | - | 23 W/m² | - |
| 1777940094 | 22.78° C | 56% | 1012.8 hPa | 0 mm | - | 22 W/m² | - |
| 1777939790 | 22.78° C | 56% | 1012.9 hPa | 0 mm | - | 21 W/m² | - |
| 1777939489 | 22.78° C | 56% | 1012.9 hPa | 0 mm | - | 23 W/m² | - |
| 1777939185 | 23.33° C | 55% | 1013 hPa | 0 mm | - | 24 W/m² | - |
| 1777938883 | 23.33° C | 56% | 1012.9 hPa | 0 mm | - | 34 W/m² | - |
| 1777938579 | 22.78° C | 56% | 1013 hPa | 0 mm | - | 133 W/m² | - |
| 1777938276 | 22.78° C | 56% | 1013 hPa | 0 mm | - | 28 W/m² | - |
| 1777937973 | 22.78° C | 56% | 1012.9 hPa | 0 mm | - | 255 W/m² | - |
| 1777937668 | 22.78° C | 55% | 1013 hPa | 0 mm | - | 381 W/m² | - |
| 1777937366 | 22.78° C | 55% | 1012.9 hPa | 0 mm | - | 416 W/m² | - |
| 1777937063 | 22.78° C | 56% | 1013 hPa | 0 mm | - | 456 W/m² | - |
| 1777936760 | 22.78° C | 56% | 1013.1 hPa | 0 mm | - | 408 W/m² | - |
| 1777936456 | 22.78° C | 56% | 1013.2 hPa | 0 mm | - | 84 W/m² | - |
| 1777936152 | 22.22° C | 57% | 1013.2 hPa | 0 mm | - | 32 W/m² | - |
| 1777935850 | 22.78° C | 56% | 1013.3 hPa | 0 mm | - | 448 W/m² | - |
| 1777935548 | 21.67° C | 59% | 1013.2 hPa | 0 mm | - | 29 W/m² | - |
| 1777935245 | 21.67° C | 58% | 1013.3 hPa | 0 mm | - | 95 W/m² | - |
| 1777934942 | 22.22° C | 57% | 1013.5 hPa | 0 mm | - | 48 W/m² | - |
| 1777934638 | 21.67° C | 58% | 1013.5 hPa | 0 mm | - | 29 W/m² | - |
| 1777934336 | 21.67° C | 59% | 1013.3 hPa | 0 mm | - | 77 W/m² | - |
| 1777934036 | 21.11° C | 60% | 1013.5 hPa | 0 mm | - | 28 W/m² | - |
| 1777933732 | 21.67° C | 59% | 1013.8 hPa | 0 mm | - | 28 W/m² | - |
| 1777933429 | 21.11° C | 59% | 1013.9 hPa | 0 mm | - | 33 W/m² | - |
| 1777933128 | 21.67° C | 58% | 1013.8 hPa | 0 mm | - | 30 W/m² | - |
* Rain latest hour (hover to see other rain measurements)
** Current wind speed in m/s (hover to see current wind gust speed)